Location: Acton
(51.4942°N, 0.2232°W)
Time: 22:48:31
(UTC+00:00)

Cosmos 2251 Rocket - Pass Details

Date: 18 September 2020
Orbit: 765 x 792 km, 74.0° (Epoch: 30 October)

Event Time Altitude Azimuth Distance (km) Brightness Sun altitude
Rises 21:46:36 0° 334° (NNW) 3,302 7.9 -30.6°
Reaches altitude 10° 21:49:01 10° 334° (NNW) 2,368 6.9 -30.8°
Enters shadow 21:53:14 56° 324° (NW) 942 4.1 -31.2°
